Location: Limerick
(52.6650°N, 8.6230°W)
Time: 19:45:46
(UTC+01:00)

ISS - Pass Details

Date: 21 July 2017
Orbit: 400 x 408 km, 51.6° (Epoch: 21 July)

Event Time Altitude Azimuth Distance (km) Brightness Sun altitude
Rises 04:08:08 0° 278° (W) 2,316 -0.3 -10.2°
Reaches altitude 10° 04:10:14 10° 274° (W) 1,457 -1.3 -10.0°
Maximum altitude 04:13:25 54° 196° (SSW) 496 -3.7 -9.7°
Drops below altitude 10° 04:16:37 10° 118° (ESE) 1,456 -0.9 -9.5°
Sets 04:18:43 0° 114° (ESE) 2,315 0.2 -9.3°
